COSMOS 374

Satellite information

Favourite Embed

Satellite Type and Status

PAYLOADIN ORBIT

Key statistics

Satellite COSMOS 374 at a glance.

Uptime

20086

Days in orbit

Revolutions

≈ 13.0

Per day

Orbit

MEO

Medium Earth Orbit

Inclination

62.9

Latest

Satellite identification and parameters

Extended collection of information and parameters for COSMOS 374.

Object identification

Identified? True

Debris? False

Object name: COSMOS 374

International designator: 1970-089A

Object number (NORAD): 4594

Object ID (CCSDS): 4594

Country: COMMONWEALTH OF INDEPENDENT STATES (CIS)

Current information (Y/N): Y

RCS size: MEDIUM

Orbital parameters

Period: 111.064 minutes

Inclination: 62.9371 deg

SMA: 7653.77 km

Apoapsis: 2015.533 km

Periapsis: 535.737 km

RAAN: 348.9027 deg

Eccentricy: 0.09667104

Argument of periapsis: 38.4181 deg

Mean anomaly: 328.1773 deg

Mean motion: 12.96551144 rev/day

Mean motion (dot): 0.00000433 rev/day2

B* drag term: 0.00019264797 1/REarth

Two-line elements (TLE)

Creation date: Oct. 20, 2025, 2:10 a.m.

Reference frame: TEME

Reference center: EARTH

Epoch: Oct. 19, 2025, 10:03 p.m. UTC

TLE line 0: 0 COSMOS 374

TLE line 1: 1 04594U 70089A 25292.91915224 .00000433 00000-0 19265-3 0 9995

TLE line 2: 2 04594 62.9371 348.9027 0966710 38.4181 328.1773 12.96551144637756

Live tracking on map

Real-time ground track for satellite COSMOS 374.

In-orbit conjunctions

A list of the most updated potential collisions computed for object COSMOS 374.

Target Orbit TCA Probability of collision Miss distance Type
COSMOS 1867 COOLANT LEO 2024-08-31 09:54:04 0.0001918091 49.0 (m) DEBRIS

Associated space launch

The I2P satellites were the first soviet coorbital ASAT system.

COSMOS 374 was lifted into orbit during the mission ‘Tsiklon-2 | I2P 4’, on board a Tsiklon-2 space rocket.

The launch took place on Oct. 23, 1970, 4:42 a.m. from 90/20.

For more information about the launch, click the button.

Launch to space Tsiklon-2 | I2P 4
Tsiklon-2 | I2P 4

Agency: N/A

Status: Launch Successful

Launch date: Oct. 23, 1970, 4:42 a.m. UTC

Rocket: Tsiklon-2

Launch pad: 90/20

Location: Baikonur Cosmodrome, Republic of Kazakhstan

...

Latest news about this satellite

There are no fresh news available about this satellite. Check back as we update our databases every day.


Newsletter sign-up

Weekly statistics, charts and insights to help you stay on top of the space industry.